FGRST (GLAST)

Last updated on Thu Nov 21 2024 00:02:35 GMT+0000 (Coordinated Universal Time)

1 33053U 08029A 24325.12101930 .00006810 00000+0 30128-3 0 9997 2 33053 25.5809 216.8513 0010137 55.4683 304.6810 15.18976740908292
UTC large
Height (km)
Speed (km/s)
/
Latitude / Longitude
Inclination (degrees)
Orbital Period (minutes)
Azimuth
Elevation
Range (km)
Doppler Factor

Next 0 passes for location: London (51.5072 / 0.1276)

Sorry there are no passes over London.